Regional Weather Roundup
Issued by NWS

Home | Current Version | Previous Version | Text Only | Print | Product List | Glossary Off
Versions: 1 2 3 4 5 6 7 8 9 10 11 12 13 14 15 16 17 18 19 20 21 22 23 24 25 26 27 28 29 30 31 32 33 34 35 36 37 38 39 40 41 42 43 44 45 46 47 48 49 50

000
ASUS45 KBOU 290107
RWRCO

WEATHER ROUNDUP FOR COLORADO
NATIONAL WEATHER SERVICE DENVER/BOULDER CO
700 PM MDT THU MAY 28 2015

NOTE: "FAIR" INDICATES FEW OR NO CLOUDS BELOW 12000 FEET WITH NO
SIGNIFICANT WEATHER AND/OR OBSTRUCTIONS TO VISIBILITY.

COZ001>005-013-030-031-290200-
...NORTHWEST COLORADO...

CITY           SKY/WX    TMP DP  RH WIND       PRES   REMARKS
CRAIG          RAIN      46  41  82 W16G22    30.23R
HAYDEN         CLOUDY    46  41  81 NE3       30.19F
MEEKER         PTSUNNY   53  38  56 CALM      30.21R
MOUNT WERNER   NOT AVBL
STEAMBOAT SPGS CLOUDY    44  41  89 E5        30.21F
WALDEN         CLOUDY    41  36  81 W16       30.23R
$$

COZ006>008-011-290200-
...WEST CENTRAL VALLEYS...

CITY           SKY/WX    TMP DP  RH WIND       PRES   REMARKS
GRAND JUNCTION PTSUNNY   63  40  42 CALM      30.09F
MONTROSE       CLOUDY    59  41  51 W7        30.19R
EAGLE          PTSUNNY   63  41  45 CALM      30.20R
RIFLE          PTSUNNY   60  39  45 E3        30.14S
DELTA          CLOUDY    69  37  30 SW7       30.12S
NUCLA          CLOUDY    59  46  63 S14G25    30.19F
$$

COZ017>023-064>068-290200-
...SOUTHWEST COLORADO...

CITY           SKY/WX    TMP DP  RH WIND       PRES   REMARKS
DURANGO        MOSUNNY   66  34  30 NW28G45   30.11R
CORTEZ         MOSUNNY   67  40  37 N28G37    30.12R
PAGOSA SPRINGS PTSUNNY   64  30  27 NW7       30.17S
TELLURIDE      RAIN      46  39  78 W18G28    30.35R
WOLF CREEK PAS NOT AVBL
$$

COZ009-010-012-014-032>034-037-058>063-290200-
...CENTRAL COLORADO...

CITY           SKY/WX    TMP DP  RH WIND       PRES   REMARKS
ASPEN          CLOUDY    47  41  80 SE9       30.26R
BUENA VISTA    CLOUDY    50  35  57 CALM      30.20F
COPPER MTN     LGT SNOW  36  32  87 W9        30.40R VSB 1
BERTHOUD PASS  SNOW      28  21  74 NW28G35   30.37R VSB<1/4 WCI  13
COTTONWOOD PAS CLOUDY    46  34  61 N3G30     30.27F
GUNNISON       PTSUNNY   52  36  54 N10       30.26R
KREMMLING      CLOUDY    50  34  53 N5        30.22S
LEADVILLE      LGT RAIN  38  35  89 CALM      30.33R
MONARCH PASS   CLOUDY    32  30  93 W32       30.46F WCI  17
SALIDA         CLOUDY    57  38  48 N3        30.24F
SUNLIGHT       CLOUDY    41  34  75 CALM      30.37R
WILKERSON PASS MOSUNNY   43  19  39 W16G24    30.32R
$$

COZ069>075-290200-
...SAN LUIS VALLEY/SANGRE DE CRISTO MOUNTAINS...

CITY           SKY/WX    TMP DP  RH WIND       PRES   REMARKS
ALAMOSA        SUNNY     66  29  24 W20G26    30.09F
LA VETA PASS   SUNNY    N/A N/A N/A MISG      30.23R
SAGUACHE       PTSUNNY   55  34  44 N12       30.19R
$$

COZ035-036-038>040-290200-
...NORTHERN COLORADO FRONT RANGE...

CITY           SKY/WX    TMP DP  RH WIND       PRES   REMARKS
DENVER INTL AP PTSUNNY   62  51  67 E14       30.02R
DMNS CITY PARK   N/A     64  44  49 E3G10     30.03R
AURORA         PTSUNNY   60  46  61 E9        30.03R
FRONT RANGE AP PTSUNNY   63  54  72 NE8       30.04R
ERIE MUNI ARPT PTSUNNY   66  44  44 N7        30.01R
BOULDER MUN AP PTSUNNY   66  36  32 W6        30.02R
CENTENNIAL     PTSUNNY   64  44  48 N16G26    30.03R
BROOMFIELD     PTSUNNY   64  43  45 W13       30.06R
FORT COLLINS   PTSUNNY   66  41  39 N8        30.02R
LONGMONT       PTSUNNY   71  45  39 NE10      30.02R
$$

COZ041-046-047-076>085-087-088-290200-
...PIKES PEAK/PALMER DIVIDE AND SOUTHERN FOOTHILLS...

CITY           SKY/WX    TMP DP  RH WIND       PRES   REMARKS
COLO. SPRINGS  PTSUNNY   67  42  40 E12       30.02R
A. F. ACADEMY  MOSUNNY   65  38  37 N13       30.03R
ELLICOTT       MOSUNNY  N/A N/A N/A E15       30.03R
FALCON         CLOUDY    65  35  33 NE54G97   30.06S
FORT CARSON    PTSUNNY   67  43  40 NE10G18   30.00R
LIMON          CLOUDY    59  49  69 E13       30.04R
MONUMENT HILL  CLOUDY    61  37  41 W10       30.08R
TRINIDAD       SUNNY     70  44  39 NE6       30.00R
$$

COZ042>045-048>051-090-091-290200-
...NORTHEAST COLORADO...

CITY           SKY/WX    TMP DP  RH WIND       PRES   REMARKS
GREELEY ARPT   PTSUNNY   63  52  67 S9        30.00R
AKRON          CLOUDY    58  51  78 NE3       29.97R
BURLINGTON     CLOUDY    59  52  77 N9        30.00R
WRAY           CLOUDY    59  53  78 E8        29.93F
STERLING       CLOUDY    55  54  94 W3        29.93S
HOLYOKE        CLOUDY    61  52  72 SE10      29.91F
FORT MORGAN    CLOUDY    60  50  68 E7        29.97R
$$

COZ086-089-092>099-290200-
...SOUTHEAST COLORADO...

CITY           SKY/WX    TMP DP  RH WIND       PRES   REMARKS
PUEBLO         MOSUNNY   72  45  37 SE9       29.91R
LA JUNTA       CLOUDY    65  53  65 E12       29.92R
LAMAR          LGT RAIN  61  54  77 N26G46    29.97R
SPRINGFIELD      N/A     59  49  69 S13       29.94R
$$


USA.gov is the U.S. government's official web portal to all federal, state and local government web resources and services.